KOREASAT 7

Last updated on Thu Jul 03 2025 00:02:47 GMT+0000 (Coordinated Universal Time)

1 42691U 17023A 25183.58960406 -.00000354 00000+0 00000+0 0 9993 2 42691 0.0206 344.6750 0001135 93.1447 171.1869 1.00269016 29862
UTC large
Height (km)
Speed (km/s)
/
Latitude / Longitude
Inclination (degrees)
Orbital Period (minutes)
Azimuth
Elevation
Range (km)
Doppler Factor

Next 0 passes for location: London (51.5072 / 0.1276)

Sorry there are no passes over London.